Torna al catalogo

QIANFAN-20

AttivoComunicazioniPO
NORAD 61553·PAYLOAD·🇨🇳 China

Lanciato Oct 15, 2024 da Taiyuan Satellite Launch Center

Loading…

Prossimi Passaggi (prossime 24 ore)

TLE

AggiornatoSource: Space-Track

Epoca: Sep 14, 2026, 21:04 UTC

1 61553U 24185B   26257.87779184  .00000282  00000-0  15479-3 0  9994
2 61553  88.9843  46.8987 0006158 160.5084 199.6337 14.09069634108377

Traccia QIANFAN-20 in tempo reale con AllMySat

Download on the App Store